Maryland Science Center, MD

2:28 PM EST on December 07, 2019 (GMT -0500)
Maryland Science Center

Weather History for KDMH - October, 2019

Change the Weather History Date:

Sunday, October 27, 2019

  Actual Average Record
Temperature  
Mean Temperature 69 °F 57 °F  
Max Temperature 79 °F 65 °F 79 °F (2019)
Min Temperature 59 °F 48 °F 42 °F (2001)
Degree Days  
Heating Degree Days 0 9  
Month to date heating degree days 90 153  
Since 1 July heating degree days 90 171  
Cooling Degree Days 4 0  
Month to date cooling degree days 61 40  
Year to date cooling degree days 2050 1665  
Growing Degree Days 18 (Base 50)    
Moisture  
Dew Point 58 °F    
Average Humidity 70    
Maximum Humidity 100    
Minimum Humidity 40    
Precipitation  
Precipitation 1.31 in 0.08 in 2.50 in (2003)
Month to date precipitation 4.67 2.72  
Year to date precipitation 35.54 34.18  
Sea Level Pressure  
Sea Level Pressure 29.89 in    
Wind  
Wind Speed - (North)    
Max Wind Speed -    
Max Gust Speed -    
T = Trace of Precipitation, MM = Missing Value Source: NWS Daily Summary

Daily Weather History Graph

Daily Weather History Graph

Search for Another Location

Airport or City:

Astronomy

Oct. 27, 2019 Rise Set
Actual Time 7:28 AM EDT 6:11 PM EDT
Civil Twilight 7:01 AM EDT 6:38 PM EDT
Nautical Twilight 6:29 AM EDT 7:10 PM EDT
Astronomical Twilight 5:58 AM EDT 7:41 PM EDT
Moon 6:35 AM EDT (10/27) 6:19 PM EDT (10/27)
Length of Visible Light 11h 37m
Length of Day
10h 42m
Waning Crescent, 0% of the Moon is Illuminated
Oct 27
Waning Crescent
Oct 27
New
Nov 4
First Quarter
Nov 12
Full
Nov 19
Last Quarter

Hourly Weather History & Observations

Time (EDT) Temp. Dew Point Humidity Pressure Visibility Wind Dir Wind Speed Gust Speed Precip Events Conditions
12:54 AM 59.0 °F 55.0 °F 87% 30.11 in - North - - N/A   Unknown
1:54 AM 59.0 °F 55.0 °F 87% 30.08 in - North - - N/A   Unknown
2:54 AM 60.1 °F 55.9 °F 86% 30.05 in - North - - N/A   Unknown
3:54 AM 60.1 °F 57.0 °F 90% 30.01 in - North - - 0.01 in   Unknown
4:54 AM 60.1 °F 57.9 °F 93% 29.95 in - North - - 0.13 in   Unknown
5:54 AM 61.0 °F 59.0 °F 93% 29.92 in - North - - 0.15 in   Unknown
6:54 AM 63.0 °F 61.0 °F 93% 29.87 in - North - - 0.10 in   Unknown
7:54 AM 64.0 °F 63.0 °F 96% 29.85 in - North - - 0.08 in   Unknown
8:54 AM 64.9 °F 64.0 °F 97% 29.82 in - North - - 0.28 in   Unknown
9:54 AM 68.0 °F 66.9 °F 96% 29.79 in - North - - 0.07 in   Unknown
10:54 AM 69.1 °F 68.0 °F 96% 29.78 in - North - - 0.24 in   Unknown
11:54 AM 66.9 °F 64.9 °F 93% 29.80 in - North - - 0.23 in   Unknown
12:54 PM 69.1 °F 66.0 °F 90% 29.78 in - North - - 0.02 in   Unknown
1:54 PM 75.0 °F 64.0 °F 69% 29.81 in - North - - N/A   Unknown
2:54 PM 78.1 °F 60.1 °F 54% 29.77 in - North - - N/A   Unknown
3:54 PM 78.1 °F 57.9 °F 50% 29.75 in - North - - N/A   Unknown
5:54 PM 75.0 °F 52.0 °F 44% 29.81 in - North - - N/A   Unknown
6:54 PM 73.0 °F 52.0 °F 48% 29.84 in - North - - N/A   Unknown
7:54 PM 72.0 °F 50.0 °F 46% 29.88 in - North - - N/A   Unknown
8:54 PM 70.0 °F 50.0 °F 49% 29.92 in - North - - N/A   Unknown
9:54 PM 68.0 °F 48.0 °F 49% 29.95 in - North - - N/A   Unknown
10:54 PM 66.0 °F 48.0 °F 52% 29.98 in - North - - N/A   Unknown
11:54 PM 63.0 °F 48.9 °F 60% 29.99 in - North - - N/A   Unknown